sat.trackr.live / text

‹ back to catalog

STARLINK-30225

NORAD 57449 · 2023-105V

PAYLOAD ACTIVE UNKNOWN

§ Identity

Operator
Country
US
Launch date
2023-07-24
Launch site
AFETR
Launch vehicle
Mass (kg)
RCS (m²)

Purposes: comms

External: N2YO · Heavens-Above · Gunter

§ Orbital elements

Epoch: 2026-09-20T16:11:12.416064Z

Period
94.27 min
Inclination
43.0037°
Eccentricity
0.0001718
Mean motion
15.27587083 rev/d
Perigee alt
481.8 km
Apogee alt
484.2 km
Semi-major
6,861.2 km
B*
7.3044e-5
RAAN
241.9678°
Arg perigee
281.8299°
Mean anomaly
78.2360°
Rev number
17,542

§ Raw data

STARLINK-302251 57449U 23105V   26263.67444926  .00001749  00000+0  73044-4 0  99932 57449  43.0037 241.9678 0001718 281.8299  78.2360 15.27587083175422

JSON: /api/v1/satellites/57449 · /tle

For live sub-satellite position, see the globe view (requires WebGL).

§ Visibility from observer

Set your observer location to see the next 7 days of passes ≥ 10°. The values pass through the URL so the page stays shareable.

No JS? Fill the form by hand. The geolocation button needs JavaScript.